Location: Newark
(46.0333°N, 5.8167°E)
Time: 16:45:49
(UTC+00:00)

N. Korean satellite - Visible Passes

Search period start: 17 September 2019 00:00
Search period end: 27 September 2019 00:00
Orbit: 455 x 508 km, 97.2° (Epoch: 16 September)

Date Brightness Start Highest point End Pass type
(mag) Time Alt. Az. Time Alt. Az. Time Alt. Az.
17 Sep 9.8 04:42:58 10° NE 04:45:10 16° E 04:47:20 10° SE visible
21 Sep 10.0 04:35:53 10° ENE 04:37:36 13° E 04:39:18 10° ESE visible
24 Sep 9.6 04:52:45 10° NE 04:55:26 21° E 04:58:07 10° SE visible
25 Sep 10.3 04:29:05 10° ENE 04:30:00 11° E 04:30:55 10° ESE visible
